GFSWCAN_850_rhum_228.txt.gz
RH
87 92 100 98 100 97 97 100 96 86 90 91 97 98 100 99 100 91 80 75 70 72 93 76 86 93 84 89 96 100 96 100 100 100 100 100 99 97 93 92 98 96 96 99 99 98 92 54 30 41 49 39 32 25
93 89 99 99 100 100 94 100 98 88 89 90 92 95 98 100 100 96 79 79 74 75 99 90 84 80 90 77 83 98 89 97 96 99 99 99 99 97 88 98 84 97 85 92 82 77 51 27 30 29 26 36 41 38
80 93 98 100 98 100 100 90 94 91 84 81 80 80 85 98 100 98 89 87 86 92 97 99 99 99 90 87 73 93 95 89 96 82 96 99 98 93 96 96 92 83 81 90 83 67 36 36 33 29 26 28 35 36
63 80 93 98 99 100 100 100 96 92 90 90 87 90 98 100 100 99 97 90 84 97 96 99 100 100 100 100 88 76 72 86 86 85 99 100 97 96 95 80 79 83 78 86 79 55 41 42 30 28 30 29 33 36
56 70 82 96 100 96 100 100 100 98 97 96 98 99 96 99 100 100 99 93 85 85 99 99 100 100 100 100 95 87 80 86 95 99 100 100 100 93 82 70 77 72 83 82 81 54 52 42 32 29 32 38 38 40
54 59 87 99 99 95 81 87 91 96 99 100 100 99 96 100 99 100 98 99 100 96 94 98 99 100 100 100 97 95 100 100 99 100 100 100 85 85 94 96 56 46 53 54 57 44 37 32 29 31 35 39 39 38
53 52 74 98 98 100 95 89 96 90 93 97 99 99 99 99 100 98 94 96 98 100 98 99 99 99 100 100 100 100 100 100 100 100 100 77 63 85 91 78 41 42 42 47 40 35 46 33 38 32 32 38 40 37
58 54 49 86 97 99 99 100 100 99 94 90 92 99 100 100 99 99 100 100 100 97 98 98 98 99 100 100 99 100 100 100 99 97 87 86 75 76 81 44 30 39 34 36 33 31 32 31 29 37 41 42 38 35
60 62 51 47 73 90 98 97 98 100 100 100 100 100 100 100 99 99 100 98 100 98 98 98 92 98 99 99 100 99 92 96 65 85 69 67 76 70 50 42 24 35 36 27 24 27 33 34 39 41 42 43 40 36
56 54 62 49 47 55 78 73 90 98 97 99 99 96 98 99 99 98 98 99 100 100 100 97 98 99 93 97 99 96 78 88 85 62 54 85 65 47 40 34 21 24 27 24 41 47 47 49 42 42 43 42 41 40
53 48 45 56 52 41 45 43 51 80 73 69 72 92 98 99 95 98 99 98 99 99 99 99 92 96 90 95 98 77 92 90 84 65 70 80 80 64 34 28 19 20 20 22 22 27 30 35 42 44 44 42 42 39
47 48 41 38 50 45 35 33 35 62 78 54 60 83 95 84 92 87 97 95 93 96 99 97 98 96 94 71 92 90 86 89 77 76 85 88 81 40 34 25 20 20 21 21 23 29 32 32 35 40 43 46 45 42
43 45 42 32 39 53 45 47 50 55 48 48 42 60 64 81 77 75 87 90 98 98 98 98 98 95 80 68 92 87 84 87 72 87 80 85 62 42 34 24 21 20 21 22 27 29 29 30 34 40 46 44 42 40
44 40 40 30 33 37 49 50 47 39 34 45 66 72 83 93 93 89 82 94 95 95 98 88 98 90 85 87 90 80 79 72 90 90 76 80 52 40 34 27 25 22 23 26 29 31 33 37 48 50 49 49 49 51
43 46 35 29 26 37 29 29 25 20 51 59 64 89 92 84 83 83 84 90 95 92 79 83 86 84 94 87 88 79 82 83 82 83 84 67 40 36 36 30 27 24 27 31 36 41 54 55 55 55 53 48 44 43
53 69 32 36 34 42 35 25 24 34 56 63 64 82 82 93 98 90 84 79 77 62 58 62 86 90 89 88 80 79 81 81 78 89 67 53 42 39 38 33 31 33 39 47 53 54 55 56 58 59 63 66 68 67
72 81 37 34 51 54 41 39 49 53 54 64 85 79 90 91 96 82 67 58 48 46 87 79 80 69 84 85 72 79 77 83 90 71 56 46 44 44 41 39 42 46 53 59 62 64 63 63 61 58 54 53 56 61
85 63 30 41 60 52 49 53 51 68 91 85 93 87 82 92 75 69 62 54 52 60 63 58 67 64 83 62 86 93 100 99 86 68 61 54 50 54 53 59 62 60 61 62 60 56 51 48 47 50 59 72 78 80
77 39 55 67 58 63 56 58 61 86 96 74 78 83 86 79 67 61 59 56 50 49 46 63 71 84 89 96 91 97 94 92 98 88 75 69 64 63 63 62 61 59 54 47 43 42 47 58 69 75 79 82 80 80
70 36 72 70 64 62 64 62 62 62 82 79 72 70 75 71 65 59 55 51 46 55 76 84 92 83 86 69 75 73 75 75 76 86 85 78 67 62 52 44 41 44 48 57 64 68 70 77 85 88 90 87 83 82
40 47 62 64 62 69 70 66 68 68 63 65 67 69 76 67 68 62 59 53 56 82 83 68 66 69 70 67 65 67 68 66 66 66 66 57 59 57 57 60 61 65 67 71 75 85 88 89 89 88 86 89 94 90
47 47 56 54 73 71 72 72 68 68 70 72 65 66 82 91 84 64 60 63 71 58 56 69 66 58 57 63 71 70 70 67 65 65 64 61 72 76 78 76 73 76 82 81 80 80 81 85 88 91 92 91 89 81
64 66 76 77 76 74 83 80 71 67 82 85 72 84 91 94 65 64 88 64 58 53 49 54 59 64 64 63 58 59 62 63 65 65 66 71 79 86 86 82 82 80 82 86 86 84 83 83 82 79 78 74 71 74
70 64 72 85 80 99 77 82 74 75 75 85 84 76 83 91 66 84 84 79 52 57 55 56 59 67 70 72 70 70 67 63 66 75 74 71 78 88 87 88 90 86 85 87 86 84 81 78 74 74 71 81 89 88
54 77 72 99 85 90 92 90 86 79 86 84 79 88 88 64 88 87 77 69 52 56 58 61 66 67 70 79 84 83 83 79 74 84 82 81 80 89 91 93 93 94 94 86 80 79 81 82 84 86 88 92 94 93
91 87 83 89 95 85 88 90 90 87 87 82 80 87 71 91 86 82 76 64 68 62 64 68 72 73 78 75 82 85 70 82 84 85 86 87 86 85 88 91 88 86 92 94 90 91 94 96 97 96 90 74 67 73
99 100 80 74 66 66 84 81 71 85 86 86 92 89 91 94 91 78 75 69 67 73 80 78 70 70 76 81 82 83 74 72 71 73 80 94 96 98 98 97 96 91 92 93 90 82 68 55 49 50 55 62 79 94
81 76 91 88 77 71 92 97 91 83 87 81 80 88 85 79 87 100 88 64 38 54 72 83 82 79 76 74 77 84 93 95 93 91 94 98 98 94 78 67 68 72 67 59 60 51 47 51 56 64 81 92 93 96
85 79 76 92 88 86 86 87 87 63 62 60 87 92 94 99 98 100 100 78 54 49 60 81 88 86 86 93 99 99 98 97 93 96 96 93 87 82 81 76 73 71 80 77 59 61 65 61 66 73 75 78 84 90
87 62 87 91 88 87 81 60 57 54 57 54 62 91 100 99 100 100 100 100 94 79 76 82 82 92 88 98 96 97 98 97 95 93 88 82 88 91 94 97 95 93 71 60 60 48 43 46 49 58 71 78 84 92
62 67 83 89 89 68 62 56 56 52 54 54 54 75 100 100 99 99 85 79 91 100 99 99 100 100 99 97 96 95 93 95 92 81 82 91 98 99 99 92 73 66 64 49 43 46 50 62 70 74 79 86 93 96
65 79 90 95 100 99 67 62 64 67 69 68 87 98 100 100 97 98 99 96 100 100 100 100 98 99 99 97 97 93 86 75 78 72 71 69 67 67 66 68 63 46 44 48 52 65 70 72 77 83 89 92 94 95
79 70 77 95 98 100 97 84 90 97 88 96 99 99 97 94 96 97 98 100 99 98 97 97 97 97 97 96 88 81 70 58 57 60 61 64 66 64 53 44 46 48 53 64 68 70 74 79 84 88 91 93 94 94

GFSWCAN_850_rhum_234.txt.gz
RH
38 59 94 100 99 99 100 99 94 98 98 98 99 97 100 100 100 97 69 61 47 91 99 82 72 74 68 70 82 98 99 99 100 99 98 100 100 98 99 97 98 96 97 99 99 99 94 61 38 64 60 38 39 53
46 80 89 96 100 100 92 100 99 98 94 98 99 99 98 98 99 82 76 66 61 53 98 96 95 99 93 88 80 96 97 96 96 98 100 100 100 100 98 98 93 98 89 94 89 88 62 50 37 35 35 31 32 42
55 86 86 98 100 100 90 97 99 99 99 97 100 100 98 96 96 88 87 72 61 84 99 94 90 73 89 86 98 94 98 92 95 79 97 99 99 94 98 98 98 88 80 94 88 74 70 37 40 30 30 29 27 31
69 84 88 99 99 100 94 97 99 98 99 100 100 99 100 100 97 79 72 69 63 79 96 100 100 99 81 76 93 100 99 97 91 82 100 100 98 94 94 85 92 89 85 89 86 69 50 44 36 35 28 27 29 43
76 88 90 98 99 100 99 96 100 98 98 100 99 100 100 98 88 82 78 72 71 64 96 100 98 98 99 97 97 99 100 100 99 100 100 100 98 96 96 92 96 91 89 85 86 69 67 57 43 33 30 28 32 37
53 79 85 98 100 100 100 100 97 98 98 99 100 100 100 100 96 99 100 98 85 84 89 98 99 98 100 100 100 100 100 99 100 99 100 100 96 91 98 98 74 71 69 62 67 54 52 46 43 33 33 36 38 39
54 56 78 87 98 100 100 100 99 96 98 98 98 98 100 100 100 98 98 97 96 98 82 98 97 99 100 100 100 100 100 100 99 100 100 99 96 92 98 98 69 66 64 64 57 52 52 42 41 39 38 43 40 38
53 52 56 77 87 100 100 100 98 98 100 99 100 100 100 100 100 99 100 100 97 84 93 97 96 97 100 100 99 100 99 100 99 99 100 99 99 100 98 80 54 47 59 64 57 51 46 42 41 46 43 42 40 39
51 50 50 52 72 86 100 100 100 100 100 100 100 100 100 99 99 99 100 100 100 96 97 97 96 96 99 99 100 99 99 98 99 98 98 98 98 97 83 73 65 42 56 58 54 46 45 41 48 46 42 38 33 35
49 51 45 47 47 56 74 99 100 100 100 99 100 99 98 99 99 99 100 99 100 100 99 97 88 99 97 96 99 96 98 98 97 97 99 98 94 74 53 51 39 43 47 55 48 58 56 55 50 44 36 40 39 34
53 49 44 43 50 49 55 80 99 100 98 96 97 99 99 100 93 88 99 96 96 99 99 97 91 98 96 94 98 91 97 96 96 85 95 94 92 71 47 35 31 27 40 49 45 42 40 38 39 40 42 37 34 33
59 44 45 38 56 56 53 84 92 98 86 81 82 96 94 87 94 89 98 98 98 94 99 98 99 96 100 89 96 99 96 95 90 83 86 87 83 49 40 33 33 41 43 48 43 38 40 40 38 37 36 37 33 31
59 45 42 36 54 68 68 77 96 91 80 73 74 73 80 92 96 87 100 98 98 100 97 99 98 99 100 98 98 97 96 96 79 89 86 90 76 52 36 36 43 42 42 40 40 38 38 43 42 35 38 35 34 38
56 46 43 34 49 67 66 69 77 77 74 50 75 91 84 93 89 79 79 93 90 94 99 94 99 98 99 98 97 96 96 84 94 96 81 84 61 51 36 37 37 39 35 34 36 38 41 44 44 39 36 39 40 41
54 46 48 33 42 61 61 61 65 69 61 56 69 90 97 92 94 95 98 96 95 98 94 98 98 95 98 97 96 88 97 97 92 87 88 78 60 42 34 30 30 32 33 35 38 41 43 43 41 41 43 42 44 41
52 47 48 33 36 53 47 63 67 60 60 66 73 91 97 89 98 99 96 98 100 98 89 87 97 97 98 96 82 83 86 87 84 92 79 69 50 36 31 26 24 25 26 34 42 42 42 42 42 44 44 45 45 44
52 64 44 35 44 42 44 44 50 64 75 76 95 96 92 92 97 99 97 99 95 88 93 83 83 73 88 89 75 83 88 88 96 89 71 55 37 33 29 27 27 32 37 39 38 39 40 44 47 48 49 54 56 58
52 65 34 60 57 50 51 57 65 77 92 97 97 99 99 100 98 99 98 96 72 65 69 70 80 75 85 69 87 95 96 100 100 94 68 52 34 30 27 27 30 31 34 36 37 42 46 50 52 56 59 62 67 70
64 50 50 64 51 47 54 57 67 97 99 100 98 97 91 99 98 95 69 56 52 54 50 72 79 86 92 96 97 96 98 98 100 100 84 63 43 33 33 35 35 37 38 47 57 63 66 66 64 64 63 64 64 70
56 70 68 57 46 53 66 70 71 82 94 99 96 92 81 90 96 82 53 46 47 56 83 91 95 95 93 93 90 90 87 86 82 92 97 81 65 51 48 47 55 64 66 69 69 67 63 60 64 68 72 73 72 72
62 79 68 52 64 65 70 71 79 90 91 97 98 88 76 69 66 61 54 49 51 98 90 85 99 96 86 84 82 76 78 70 60 52 77 85 78 70 71 70 67 62 56 52 52 61 65 65 68 72 73 77 79 80
64 73 55 53 66 72 75 77 74 79 85 92 81 74 86 90 93 72 58 61 81 68 75 86 98 90 82 82 83 76 69 65 63 66 68 66 60 54 53 56 56 59 60 61 59 60 64 68 73 77 82 84 83 82
58 54 49 63 70 74 87 79 70 75 91 93 81 85 93 92 78 68 92 78 64 70 77 71 77 78 78 84 78 76 74 68 67 62 68 68 64 64 67 71 69 65 68 74 77 79 81 80 78 77 74 72 76 76
45 56 81 82 79 99 82 90 77 90 88 86 87 92 89 94 72 86 87 91 68 72 66 61 58 72 79 77 73 71 70 68 66 67 73 72 78 85 83 83 85 85 84 85 92 91 86 84 84 84 85 83 83 85
50 76 84 99 86 90 95 93 89 86 97 91 93 97 95 71 91 91 80 76 69 71 69 68 63 60 64 67 68 67 70 66 66 80 87 80 80 90 93 95 98 95 92 90 92 91 86 84 84 84 87 92 95 97
76 82 79 91 96 87 89 94 93 93 91 91 95 98 79 92 84 83 86 90 75 64 62 63 67 70 75 72 73 77 79 78 70 73 86 83 79 78 86 88 91 94 96 94 87 88 89 90 94 95 89 62 48 46
90 91 90 81 77 76 93 89 76 86 91 97 97 94 89 92 90 92 99 100 98 72 68 70 72 72 78 87 87 84 84 85 82 78 85 93 86 86 93 98 98 98 98 95 92 88 75 63 57 50 47 46 41 40
84 85 96 95 92 78 94 95 90 86 91 87 82 85 82 84 97 99 99 100 93 83 82 80 73 74 82 78 73 75 80 85 84 82 87 95 99 98 98 96 95 93 85 76 66 74 71 53 49 44 39 41 45 54
97 79 73 94 91 92 90 89 88 73 71 66 92 100 92 98 98 100 100 100 93 85 72 76 88 82 83 85 86 86 88 89 82 89 93 95 94 92 91 80 71 71 76 85 73 52 50 42 39 42 50 60 68 74
87 73 90 93 89 86 86 75 77 82 84 87 91 94 94 98 100 100 100 99 93 82 82 82 86 86 89 92 96 98 99 98 97 96 95 95 94 88 87 92 92 88 68 55 51 40 40 45 56 64 68 73 76 80
71 70 88 95 99 100 96 84 89 90 90 88 84 89 94 97 99 100 98 100 99 92 92 98 98 97 97 97 95 95 94 95 88 76 69 72 80 86 85 74 60 57 43 37 39 42 52 58 63 69 73 76 80 83
69 86 98 100 97 96 73 68 78 91 95 90 95 91 95 94 95 97 99 100 100 98 95 94 97 99 100 98 95 89 82 68 52 48 46 48 49 52 56 49 37 38 39 43 52 58 65 69 71 74 78 81 85 88
92 96 92 90 97 96 86 77 93 96 94 96 96 96 99 92 96 96 96 97 97 97 94 97 98 96 97 92 79 63 48 41 42 46 50 51 47 38 36 38 40 44 53 58 64 68 69 70 71 74 81 86 87 89

GFSWCAN_850_rhum_237.txt.gz
RH
46 42 59 89 95 99 100 99 89 99 94 95 99 88 92 94 100 100 100 100 96 89 89 67 64 63 64 67 82 79 81 88 98 97 99 98 99 93 96 96 98 95 98 100 100 99 90 55 53 64 58 40 38 53
44 49 89 90 95 96 100 97 99 97 95 89 88 86 86 96 100 100 100 100 93 75 99 88 75 64 60 60 62 82 74 85 78 91 100 99 100 99 88 90 93 98 86 95 88 82 64 49 48 47 34 36 34 52
45 50 88 94 93 96 100 93 100 98 100 99 96 97 96 100 99 96 99 100 96 99 100 100 98 92 82 68 58 73 82 79 83 88 96 99 100 91 96 92 97 90 79 94 85 72 70 50 43 33 33 29 31 36
47 49 59 89 97 99 100 95 98 99 100 100 100 98 100 100 99 88 91 79 64 76 98 100 97 85 76 72 66 67 77 90 99 92 99 100 100 94 88 81 88 82 83 89 86 73 56 54 45 40 32 29 28 36
50 51 52 81 87 99 99 100 92 100 100 100 100 99 98 100 99 83 82 78 66 51 95 99 99 93 87 85 87 60 96 100 99 98 100 100 96 97 97 90 96 84 84 86 87 71 64 58 48 41 41 34 30 34
53 52 52 70 79 100 100 100 94 99 98 99 100 99 98 98 98 99 100 92 76 66 82 96 100 100 100 97 99 100 99 100 99 100 98 99 97 91 98 97 74 77 70 65 78 59 59 52 50 48 42 36 36 35
57 52 52 55 74 100 100 100 99 100 100 100 100 100 99 100 96 83 89 85 73 59 77 96 97 97 100 100 100 100 100 100 99 100 100 99 99 94 97 86 67 73 66 68 59 55 57 50 46 44 39 40 41 43
62 51 51 51 57 89 100 99 100 100 100 100 100 100 100 100 100 96 90 93 86 77 98 97 94 99 99 99 99 100 100 100 99 99 100 100 100 100 99 78 61 65 70 68 62 54 50 49 45 46 41 42 44 45
66 50 51 48 55 54 92 100 100 100 100 100 100 100 99 100 99 100 100 100 99 98 96 91 91 94 100 99 99 99 99 97 99 97 96 99 97 97 79 76 63 60 65 63 63 55 52 47 48 48 46 45 43 48
70 51 50 46 54 57 54 98 100 99 100 100 99 99 98 99 99 99 99 99 100 99 93 89 92 94 97 96 95 92 97 95 95 92 99 97 89 76 69 66 66 46 54 58 59 64 56 58 52 50 46 43 39 40
74 55 46 46 49 64 58 76 98 99 99 100 98 99 99 99 97 97 98 97 96 97 95 97 85 93 96 89 91 92 92 92 94 91 94 90 85 73 59 51 46 47 45 51 52 52 49 44 48 48 44 38 35 34
76 59 42 45 46 68 73 69 72 92 95 97 96 99 99 96 87 88 97 91 90 88 96 95 97 90 99 88 90 96 90 90 86 79 87 78 72 55 52 51 38 34 44 50 53 49 48 48 45 39 49 54 45 39
78 60 42 42 45 71 77 79 91 80 75 75 72 91 96 90 83 86 100 90 96 87 94 96 98 98 99 92 95 93 94 92 72 82 76 77 66 59 46 39 43 44 50 52 50 48 46 46 41 35 46 50 45 32
79 60 41 38 48 73 76 75 76 77 67 50 77 82 80 88 80 74 73 81 87 90 87 95 98 95 98 93 90 92 90 78 92 91 74 63 58 56 45 50 56 56 51 48 46 46 47 44 44 43 40 35 30 33
80 58 41 35 47 67 71 69 72 76 69 60 69 89 98 94 94 97 97 92 94 88 92 97 97 91 95 95 95 89 96 90 85 83 75 73 66 47 51 51 52 47 49 46 44 44 46 46 43 40 36 33 38 39
79 54 40 33 48 60 62 65 68 70 62 69 81 91 94 90 97 97 99 98 100 99 98 98 94 95 93 94 93 90 87 83 75 79 82 73 53 46 47 51 52 47 46 43 46 48 49 47 42 38 39 41 41 38
75 50 43 36 56 59 69 59 56 67 78 83 94 98 97 94 95 99 95 100 98 98 94 93 92 87 90 91 74 74 85 79 94 96 86 60 43 40 42 43 46 47 45 46 47 50 48 45 43 43 43 45 43 42
64 53 40 57 64 56 53 57 65 78 93 99 95 99 99 99 100 99 98 95 88 84 76 71 75 79 80 65 75 87 96 100 100 100 80 62 46 39 32 35 46 49 50 51 47 47 45 44 44 46 49 53 53 58
60 62 48 70 61 52 53 63 69 95 97 99 99 98 99 98 98 86 69 60 62 59 60 72 72 79 83 88 92 96 100 99 100 100 85 63 48 36 36 40 42 43 45 48 48 49 52 49 48 52 55 63 62 70
70 55 67 59 52 56 68 73 77 84 94 98 93 93 98 98 88 57 50 48 53 64 87 92 95 96 98 100 100 100 100 100 92 100 99 80 66 51 50 46 48 53 55 61 61 61 63 67 69 69 69 67 65 67
82 81 72 54 62 63 70 75 90 96 98 97 97 85 97 97 70 64 56 53 61 88 90 100 100 100 100 99 91 90 86 79 69 50 88 91 77 60 60 64 65 68 69 70 66 64 59 60 67 69 68 69 70 71
82 70 60 54 66 70 76 79 82 87 94 98 86 76 85 86 85 75 61 67 83 88 94 99 100 99 92 85 79 74 70 67 65 68 75 75 77 71 66 63 57 59 60 59 58 60 65 70 73 75 75 76 78 77
73 50 45 60 70 76 92 79 73 82 95 96 82 82 89 87 80 65 89 82 78 94 98 95 87 83 81 82 80 78 72 66 65 65 64 66 66 64 62 59 54 54 62 72 69 69 72 77 79 74 71 68 69 72
57 54 77 76 78 100 85 91 83 91 81 82 87 94 90 87 69 79 82 82 86 85 87 87 82 79 77 74 70 67 74 77 78 68 70 68 75 78 72 74 75 74 72 81 84 79 78 78 78 79 82 83 84 86
47 76 77 99 87 92 96 94 89 87 98 92 94 96 93 74 86 84 76 77 85 82 80 79 75 72 72 75 72 70 69 68 72 80 83 72 76 85 85 86 85 87 92 84 86 87 84 84 85 86 88 92 94 91
76 84 81 92 96 88 90 93 94 95 90 97 98 95 79 84 82 85 87 100 87 79 71 64 62 68 76 72 78 77 80 80 69 70 89 86 81 77 90 92 91 96 94 94 89 87 87 89 93 89 74 55 47 45
82 96 91 83 75 78 92 86 76 84 94 99 98 91 81 90 96 93 97 99 100 78 80 79 73 66 74 82 81 80 83 79 68 77 90 91 86 85 89 91 95 94 97 96 94 88 71 64 63 55 46 42 38 38
80 88 98 96 92 78 92 91 86 83 88 86 77 84 84 89 95 98 100 100 96 83 79 80 77 80 84 86 87 88 89 85 80 90 93 94 97 98 98 97 96 96 88 72 68 74 64 46 42 36 36 39 47 56
97 83 75 96 93 90 90 86 85 81 76 72 93 91 93 98 97 99 100 100 96 88 74 81 95 85 80 87 92 92 92 91 82 94 86 93 94 96 93 82 72 73 81 75 49 42 35 33 36 42 50 57 64 70
86 75 89 93 89 93 99 100 98 95 90 88 91 96 95 96 97 97 97 97 93 81 81 80 82 77 82 83 90 94 97 97 97 96 92 94 94 88 85 90 85 59 45 39 32 33 37 44 52 60 67 71 73 75
75 70 96 93 96 99 100 94 88 82 83 87 86 89 96 95 97 98 96 99 98 97 96 99 97 98 95 97 94 92 93 95 91 84 81 78 81 82 76 55 46 35 33 34 38 47 55 61 65 67 69 71 74 78
72 93 98 96 96 96 89 84 88 92 93 91 93 92 94 87 96 96 97 98 99 99 100 98 98 98 99 97 92 86 76 62 53 51 46 44 44 46 40 33 33 35 40 48 54 60 62 62 64 67 72 77 81 84
91 89 90 96 96 96 89 87 95 96 95 95 96 96 96 92 97 96 97 97 97 97 91 91 98 97 96 87 74 56 39 36 39 42 43 38 32 32 34 36 41 49 54 59 60 59 59 63 68 75 80 84 86 89

GFSWCAN_850_rhum_240.txt.gz
RH
83 61 53 42 64 86 85 94 99 99 98 94 92 90 98 98 91 100 100 100 98 99 94 74 61 57 58 62 82 72 68 74 81 97 91 87 78 66 74 56 65 91 99 100 99 99 92 41 49 58 48 46 41 45
86 64 51 42 46 78 82 99 100 98 99 91 86 83 88 92 94 100 100 100 100 99 99 86 65 54 55 53 56 54 52 44 56 72 83 63 75 64 64 92 62 80 69 73 75 66 51 46 42 47 41 43 39 47
89 67 52 45 52 77 83 99 100 97 99 97 82 81 87 94 94 100 99 99 100 100 100 99 89 69 57 59 52 64 63 57 61 55 63 72 85 66 83 92 61 71 68 94 89 59 50 49 47 47 35 38 35 35
92 70 52 47 52 72 95 100 98 97 99 100 92 70 87 100 100 98 99 100 98 99 100 100 99 95 76 63 64 64 56 68 74 79 87 99 99 85 77 73 70 70 71 72 74 61 58 57 48 43 40 33 31 36
95 77 53 47 51 67 99 99 100 96 100 100 97 91 98 98 99 99 100 98 85 69 99 99 100 92 86 80 80 84 84 77 97 99 99 94 71 74 67 77 86 77 72 84 80 62 60 61 58 50 51 34 34 32
99 84 54 47 50 62 98 99 100 100 100 100 100 99 98 100 99 100 100 97 88 62 80 99 100 100 97 92 95 97 98 97 98 99 99 87 71 83 91 90 58 57 58 57 64 63 58 62 57 58 47 46 46 39
99 88 56 47 48 56 73 100 99 100 100 100 100 100 98 99 99 87 89 79 65 56 75 98 91 99 99 99 100 100 98 100 99 99 100 98 86 84 83 79 45 68 73 66 67 63 63 55 49 52 52 51 46 46
100 90 58 48 47 55 58 98 100 100 98 95 100 100 100 100 99 97 84 82 72 68 79 98 96 99 98 99 99 100 99 100 99 99 99 100 93 99 98 51 46 62 76 69 73 61 57 57 55 52 52 50 49 50
100 92 61 48 46 55 63 85 100 100 100 100 100 100 100 100 99 100 99 90 77 73 93 88 82 91 100 99 98 99 98 100 99 100 97 99 100 98 78 61 50 51 74 72 67 57 55 55 51 51 49 49 50 54
100 92 65 47 44 56 65 78 100 99 100 100 100 100 99 99 100 100 99 98 96 97 94 75 70 94 97 89 85 85 97 95 94 79 96 99 76 55 56 60 58 63 77 77 78 61 54 54 54 50 48 49 53 57
100 94 68 46 43 56 67 75 94 100 99 100 98 98 99 99 99 99 100 100 98 96 96 80 69 87 95 80 80 74 90 87 93 88 92 80 71 59 62 69 65 69 66 69 67 61 58 59 56 51 51 57 59 61
100 93 69 46 42 61 71 73 78 87 99 98 96 99 99 99 98 93 94 90 80 70 86 84 90 81 99 88 80 88 84 84 81 64 90 78 63 45 48 63 57 58 60 59 59 58 58 60 58 56 59 60 59 52
100 90 71 44 40 74 84 86 90 97 99 99 99 98 99 91 91 81 92 80 83 76 92 97 98 98 99 91 85 85 93 82 58 84 70 68 46 43 51 51 50 52 58 59 60 62 63 61 61 55 57 49 34 37
100 89 70 42 43 86 100 98 97 92 82 68 83 80 85 89 60 54 54 64 78 76 83 82 94 88 82 94 76 92 71 70 86 85 77 51 47 49 49 52 56 61 67 69 69 69 67 62 55 43 36 38 39 32
100 82 64 39 45 92 93 88 82 78 76 66 61 79 82 78 82 84 81 80 82 84 80 89 85 75 83 94 78 73 89 84 76 72 62 61 60 52 64 68 69 80 74 77 68 62 55 51 61 61 53 42 30 29
100 83 54 39 44 73 66 73 79 74 68 72 71 77 78 78 90 89 83 91 97 91 87 78 82 91 87 80 88 79 79 80 86 72 71 65 56 67 81 87 80 79 67 65 59 56 50 45 44 46 37 32 35 36
100 70 45 37 60 73 73 76 72 76 80 70 82 93 83 76 83 88 86 99 92 84 86 75 91 73 72 75 72 65 79 85 86 88 81 63 68 80 88 73 91 77 71 68 57 54 51 48 42 38 39 41 40 40
100 63 53 47 67 78 60 60 73 76 79 85 85 93 93 98 92 94 100 99 97 84 71 70 56 70 70 63 57 72 85 100 100 95 85 83 83 79 72 64 62 62 64 61 61 57 50 43 41 44 43 45 44 48
88 83 53 70 66 57 58 66 74 76 89 94 98 100 98 100 99 92 86 85 88 76 69 59 60 58 62 72 78 85 96 92 92 99 99 94 86 73 66 64 68 66 64 65 64 62 60 55 55 57 61 61 59 68
83 68 67 71 59 67 68 78 79 73 82 94 95 96 99 97 88 66 69 74 72 76 85 82 86 92 93 100 100 97 100 100 92 91 99 99 95 85 77 68 68 66 62 63 62 59 60 65 69 69 68 68 68 70
83 77 76 62 62 66 76 81 85 89 94 85 100 97 98 88 73 69 64 68 79 83 87 99 100 100 100 99 100 100 98 89 78 78 94 100 97 82 71 71 65 68 64 70 69 76 70 72 74 71 67 66 64 62
89 79 68 58 73 76 80 87 80 94 88 88 86 94 90 81 74 72 73 78 88 98 100 100 100 99 100 100 93 83 80 73 77 69 73 77 89 92 90 90 78 74 75 76 66 66 70 69 66 63 58 58 60 60
71 56 44 58 72 78 92 84 78 80 91 80 67 77 77 70 72 65 71 79 99 99 100 100 100 100 98 98 93 90 87 75 87 90 81 85 86 83 76 79 78 61 64 80 67 62 62 65 66 64 64 66 68 71
50 46 70 80 74 93 87 79 76 77 87 71 68 73 73 66 63 57 71 85 100 100 100 100 99 93 89 88 91 88 83 63 68 70 68 63 66 71 68 79 79 72 68 68 69 71 75 76 76 75 77 80 85 90
50 78 79 88 85 84 86 87 84 76 89 79 76 78 78 67 66 66 73 90 96 100 99 100 95 87 93 99 98 97 96 80 72 95 96 78 73 79 81 78 80 86 85 77 80 80 82 85 87 87 86 89 89 80
76 84 71 75 84 78 76 82 82 81 80 86 87 75 68 68 68 77 74 91 100 95 98 96 91 93 97 97 97 98 91 83 72 76 99 100 99 98 98 99 98 97 94 90 86 85 86 88 89 78 59 54 48 45
77 85 80 81 66 64 75 70 60 69 81 84 82 79 67 76 83 80 100 99 100 90 82 84 93 77 75 82 84 87 84 84 72 78 90 90 90 97 97 90 86 92 96 93 90 77 65 62 59 46 38 34 33 37
80 81 89 83 74 70 78 69 69 70 76 70 63 75 79 80 81 99 100 99 99 89 81 76 75 74 75 80 83 83 82 79 80 85 86 88 95 99 97 92 94 93 78 66 66 58 41 35 30 30 34 41 48 54
84 80 73 90 79 77 79 74 74 76 75 69 81 81 84 96 98 99 100 100 98 90 83 82 91 90 90 93 93 92 94 95 88 88 82 96 95 95 92 80 71 71 64 40 35 29 28 31 35 42 49 55 59 62
77 83 77 87 89 92 97 100 99 100 100 92 91 92 96 100 98 100 100 100 100 92 92 92 94 93 94 92 96 99 96 96 97 92 85 89 84 81 80 78 55 38 30 27 28 30 36 43 50 55 58 61 64 68
84 87 85 78 88 95 100 99 94 97 98 90 86 85 92 100 96 97 96 98 92 88 84 88 92 96 93 93 92 92 95 96 97 93 88 84 79 73 55 39 30 27 28 32 39 45 50 53 55 57 60 65 70 74
87 84 78 79 91 99 96 90 89 92 91 87 93 98 100 93 95 96 98 97 99 98 95 94 93 97 97 96 91 85 80 77 76 72 58 43 38 35 28 27 29 33 41 45 49 50 50 53 58 65 70 73 76 79
89 84 78 82 89 87 94 79 76 89 91 88 95 100 100 97 94 96 96 97 97 96 94 95 95 94 92 84 73 62 48 40 37 38 35 30 26 28 29 33 39 45 49 48 47 50 57 64 68 70 74 78 79 80

GFSWCAN_850_rhum_243.txt.gz
RH
97 97 98 76 60 47 38 37 66 74 95 100 90 92 96 98 96 99 98 100 99 97 87 80 66 61 55 55 73 66 69 75 76 98 89 85 82 75 52 40 44 56 69 79 82 89 88 32 36 66 32 26 29 37
98 97 98 87 60 44 38 50 68 97 98 87 89 97 93 93 96 100 100 100 100 100 99 98 79 67 58 63 60 65 64 54 57 71 78 64 75 61 60 70 33 63 52 63 64 52 37 41 41 41 41 35 39 40
98 90 96 89 57 42 40 58 79 98 93 84 88 86 79 85 88 99 100 99 100 100 100 100 93 79 74 66 70 70 84 59 58 43 58 68 78 49 74 65 47 38 42 82 90 74 57 43 43 44 48 43 40 45
100 100 99 89 56 43 43 59 88 95 100 92 95 78 76 83 93 99 99 98 97 99 99 98 85 77 77 75 72 84 78 67 59 63 79 78 80 42 53 40 46 42 46 55 68 68 68 46 54 48 41 47 42 41
99 100 100 92 58 44 45 56 86 96 99 100 99 90 90 98 100 100 99 99 99 93 100 99 93 87 96 89 78 78 79 75 85 92 98 96 71 65 56 53 63 44 47 60 60 50 66 61 44 44 48 45 45 39
98 100 100 91 59 45 47 57 75 98 100 100 100 97 100 100 100 99 99 100 99 98 88 100 99 99 96 78 81 93 94 75 85 90 86 68 59 68 80 63 43 35 34 37 38 37 50 54 65 53 49 45 50 62
99 99 100 88 65 46 48 60 71 88 99 100 100 99 92 92 97 94 91 91 98 98 88 100 92 100 100 100 100 99 98 100 100 99 100 81 66 66 82 82 44 38 31 29 59 65 85 86 59 65 72 76 75 72
100 99 100 86 58 48 51 69 84 96 94 100 100 100 100 100 99 97 100 91 89 86 77 97 98 93 99 98 98 100 100 99 100 99 97 89 72 76 90 50 44 45 42 41 50 55 58 78 60 53 53 57 54 50
99 97 100 85 61 48 52 75 90 99 99 100 100 100 100 100 98 97 87 80 83 87 84 75 75 91 98 100 98 99 99 100 98 100 83 86 94 96 60 46 46 45 43 41 45 61 65 86 81 72 71 67 66 59
99 97 100 86 68 47 52 80 88 99 100 100 100 100 99 100 100 99 97 98 97 93 85 69 55 93 89 94 98 97 97 98 99 78 86 100 66 46 41 41 44 51 50 57 70 81 88 80 74 58 56 57 61 62
99 96 100 86 65 46 49 77 82 98 98 100 99 99 99 100 99 100 99 100 98 99 81 54 54 80 88 80 87 66 92 84 90 77 88 77 59 45 44 43 43 53 60 65 67 74 81 77 61 59 63 58 52 55
98 96 100 85 60 45 51 77 82 88 99 99 99 99 99 99 99 99 98 95 86 68 78 72 76 81 89 86 81 84 87 80 78 69 90 75 53 43 37 40 48 60 62 70 80 82 83 90 85 78 61 57 58 62
96 96 100 84 52 47 70 85 80 98 98 99 99 99 99 96 97 95 93 86 80 67 85 92 97 93 98 92 85 81 86 82 49 77 61 60 41 39 42 51 60 53 62 65 65 66 64 63 58 58 58 60 67 69
96 96 100 74 48 61 99 98 100 100 98 98 98 97 96 96 70 50 50 57 70 68 72 80 93 88 82 90 77 88 68 62 84 86 70 62 48 45 49 67 63 80 64 61 64 63 63 66 62 62 68 69 60 55
96 96 96 52 44 87 99 99 96 99 95 82 75 92 80 66 68 75 70 66 66 73 71 75 76 70 83 94 70 66 87 80 68 75 83 58 49 49 65 72 93 86 81 79 73 78 79 71 69 76 66 49 39 39
95 95 71 42 41 88 97 98 99 98 70 61 54 68 72 73 86 79 79 85 79 73 67 64 70 88 84 76 86 78 74 71 85 73 70 58 57 67 86 95 99 99 99 95 84 80 73 61 60 69 74 62 53 41
97 98 70 39 45 79 87 95 92 74 68 54 74 74 69 68 79 77 73 82 87 75 83 60 84 65 61 73 71 62 77 75 71 77 72 69 72 92 99 99 99 99 99 99 99 98 99 95 92 72 47 48 42 39
97 97 74 46 84 97 86 80 68 62 57 66 87 79 78 78 76 84 91 82 80 74 59 69 51 64 75 62 60 65 70 89 88 80 85 84 88 99 99 99 96 91 89 88 87 87 65 66 55 60 51 51 45 48
96 100 68 78 98 98 72 65 71 59 71 80 83 84 89 94 93 86 84 87 97 72 68 68 64 61 57 64 68 70 81 79 83 99 100 100 99 95 98 95 90 88 85 89 91 82 71 65 63 72 81 66 61 74
98 74 61 76 73 59 56 68 72 60 79 78 81 84 91 78 76 83 76 71 66 62 77 72 79 91 93 97 100 93 94 87 88 88 96 98 98 94 95 95 95 96 94 94 93 91 90 91 96 97 94 97 97 100
98 84 78 74 73 64 62 65 64 76 77 82 93 78 85 74 66 62 59 64 78 83 82 95 96 100 99 99 99 92 87 79 75 78 92 99 97 92 92 92 92 92 94 96 96 99 97 99 100 98 85 86 87 92
91 85 82 73 63 66 64 70 62 79 82 82 81 74 82 80 70 68 69 79 82 98 100 96 99 100 100 98 98 98 97 90 85 85 92 91 91 90 92 92 94 97 98 100 100 98 100 100 94 71 64 76 86 97
89 75 61 64 75 71 83 79 71 67 77 79 71 75 65 59 57 60 76 84 96 98 99 100 100 96 96 92 90 88 85 82 86 91 90 91 92 94 95 98 99 97 97 100 100 99 92 80 69 76 88 95 97 99
72 60 75 76 65 84 77 76 63 62 75 71 86 88 68 54 50 56 76 83 99 97 98 98 97 97 93 92 94 96 92 89 89 90 92 92 94 96 95 94 92 93 94 99 100 98 96 92 91 96 98 100 100 100
57 70 83 88 77 80 78 85 80 65 81 67 72 74 70 51 59 67 70 89 99 99 98 96 99 98 97 100 98 98 96 92 93 96 97 91 91 93 94 96 99 100 100 82 81 75 83 93 98 100 99 99 96 90
65 87 74 72 77 68 63 77 76 72 66 76 73 57 56 62 66 74 71 97 99 100 96 94 94 94 97 95 96 95 97 93 90 96 95 90 91 95 99 100 100 100 100 96 93 100 99 98 85 64 53 45 37 50
70 79 63 61 52 52 65 60 49 62 75 76 69 75 66 67 72 77 99 99 100 100 99 96 93 97 99 99 100 100 99 98 96 99 99 96 95 97 97 100 100 100 100 94 90 74 61 55 44 34 29 27 31 38
67 64 79 65 61 55 66 60 67 72 64 50 55 70 68 68 81 98 100 100 100 97 99 98 100 100 88 84 85 82 76 74 80 85 85 88 90 87 82 81 86 86 75 61 53 37 30 26 26 29 35 41 48 53
72 60 70 81 70 75 73 72 66 63 58 57 76 74 78 93 100 100 100 99 97 88 82 81 89 84 87 88 83 83 87 94 91 84 85 99 99 100 91 80 68 62 41 30 25 22 25 29 36 43 48 52 55 56
73 66 73 79 78 83 89 98 93 96 78 78 82 86 92 100 98 98 97 99 100 100 99 95 93 94 94 89 94 99 100 100 100 98 100 100 96 83 73 64 39 29 23 23 25 30 37 42 45 47 50 56 65 68
75 75 74 71 82 94 99 95 92 92 90 84 79 82 86 98 96 97 96 99 99 100 100 100 99 100 100 100 98 95 99 98 99 97 87 78 76 69 47 31 24 23 25 30 38 43 45 46 48 53 60 63 67 70
84 75 70 75 88 98 97 93 88 92 92 87 91 94 94 87 91 96 96 97 99 100 100 100 100 100 100 98 94 91 87 91 92 87 78 61 40 31 25 23 25 30 37 42 42 43 46 53 58 62 66 69 69 70
80 77 75 74 82 87 83 76 72 87 90 87 91 94 98 88 90 99 96 99 100 100 96 91 91 92 90 85 80 79 76 66 53 40 33 28 23 23 24 28 35 40 41 40 42 50 56 60 63 66 66 67 69 71